Regional Weather Roundup
Issued by NWS

Home | Current Version | Previous Version | Graphics & Text | Print | Product List | Glossary On
Versions: 1 2 3 4 5 6 7 8 9 10 11 12 13 14 15 16 17 18 19 20 21 22 23 24 25 26 27 28 29 30 31 32 33 34 35 36 37 38 39 40 41 42 43 44 45 46 47 48 49 50
000
ASUS43 KBIS 231710
RWRND

NORTH DAKOTA REGIONAL WEATHER ROUNDUP
NATIONAL WEATHER SERVICE BISMARCK ND
1200 PM CDT THU OCT 23 2014

NOTE: "FAIR" INDICATES FEW OR NO CLOUDS BELOW 12,000 FEET WITH NO
SIGNIFICANT WEATHER AND/OR OBSTRUCTIONS TO VISIBILITY.


NDZ001>003-009>011-017-231800-
NORTHWEST NORTH DAKOTA

CITY           SKY/WX    TMP DP  RH WIND       PRES   REMARKS
WILLISTON      MOSUNNY   50  33  52 SW9       29.82F
MINOT          SUNNY     58  34  40 SW7       29.82F
MINOT AFB      SUNNY     60  36  41 SW10      29.81F
$$

NDZ018>021-031>035-040>046-231800-
SOUTHWEST NORTH DAKOTA

CITY           SKY/WX    TMP DP  RH WIND       PRES   REMARKS
BISMARCK       SUNNY     59  35  40 SW9       29.91S
DICKINSON      SUNNY     64  32  30 SW12      29.86F
GARRISON         N/A     54  38  54 SW10      29.85F
HETTINGER ARPT SUNNY     60  29  30 SW6       29.92F
$$

NDZ004>008-012>016-024-026-027-054-231800-
NORTHEAST NORTH DAKOTA

CITY           SKY/WX    TMP DP  RH WIND       PRES   REMARKS
GRAND FORKS    SUNNY     63  41  44 SW9       29.85F
GRND FRKS AFB  SUNNY     64  41  43 W13       29.86S
DEVILS LAKE    SUNNY     57  37  47 SW9       29.83F
$$

NDZ022-023-025-028>030-036>039-047>053-231800-
SOUTHEAST NORTH DAKOTA

CITY           SKY/WX    TMP DP  RH WIND       PRES   REMARKS
FARGO          SUNNY     57  45  64 S12       29.91F
JAMESTOWN      SUNNY     62  38  40 SW13      29.88F
$$




USA.gov is the U.S. government's official web portal to all federal, state and local government web resources and services.